Weather History for KCLK - November, 2013

Change the Weather History Date:

Saturday, November 2, 2013

  Actual Average (KCSM) Record (KCSM)
Temperature  
Mean Temperature 48 °F -  
Max Temperature 62 °F 61 °F 86 °F (2012)
Min Temperature 35 °F 42 °F 28 °F (2006)
Degree Days  
Heating Degree Days 16    
Moisture  
Dew Point 28 °F    
Average Humidity 50    
Maximum Humidity 75    
Minimum Humidity 20    
Precipitation  
Precipitation 0.00 in - - ()
Sea Level Pressure  
Sea Level Pressure 30.24 in    
Wind  
Wind Speed 7 mph (NNW)    
Max Wind Speed 10 mph    
Max Gust Speed -    
Visibility 10 miles    
Events      
Averages and records for this station are not official NWS values.
T = Trace of Precipitation, MM = Missing Value Source: NWS Daily Summary

Daily Weather History Graph

Daily Weather History Graph

Search for Another Location

Airport or City:

Trip Planner

Search our weather history database for the weather conditions in past years. The results will help you decide how hot, cold, wet, or windy it might be!

Date:

Astronomy

Nov. 02, 2013 Rise Set
Actual Time 7:58 AM CDT 6:39 PM CDT
Civil Twilight 7:32 AM CDT 7:05 PM CDT
Nautical Twilight 7:02 AM CDT 7:35 PM CDT
Astronomical Twilight 6:32 AM CDT 8:05 PM CDT
Moon 6:59 AM CDT (11/2) 6:11 PM CDT (11/2)
Length of Visible Light 11h 33m
Length of Day
10h 40m
Waning Crescent, 1% of the Moon is Illuminated
Nov 2
Waning Crescent
Nov 3
New
Nov 9
First Quarter
Nov 17
Full
Nov 25
Last Quarter

Hourly Weather History & Observations

Time (CDT) Temp. Windchill Dew Point Humidity Pressure Visibility Wind Dir Wind Speed Gust Speed Precip Events Conditions
12:15 AM 42.8 °F 37.5 °F 32.0 °F 66% 30.19 in 10.0 mi WNW 9.2 mph - N/A   Clear
12:35 AM 42.8 °F 39.3 °F 32.0 °F 66% 30.19 in 10.0 mi NW 5.8 mph - N/A   Clear
12:55 AM 42.8 °F 38.6 °F 32.0 °F 66% 30.20 in 10.0 mi NW 6.9 mph - N/A   Clear
1:15 AM 42.8 °F 37.5 °F 32.0 °F 66% 30.20 in 10.0 mi NW 9.2 mph - N/A   Clear
1:35 AM 42.8 °F 38.6 °F 30.2 °F 61% 30.20 in 10.0 mi NW 6.9 mph - N/A   Clear
1:55 AM 42.8 °F 39.3 °F 30.2 °F 61% 30.21 in 10.0 mi WNW 5.8 mph - N/A   Clear
2:15 AM 42.8 °F 38.0 °F 30.2 °F 61% 30.21 in 10.0 mi WNW 8.1 mph - N/A   Clear
2:35 AM 41.0 °F 35.8 °F 30.2 °F 65% 30.21 in 10.0 mi NNW 8.1 mph - N/A   Clear
2:55 AM 41.0 °F 35.2 °F 30.2 °F 65% 30.21 in 10.0 mi NNW 9.2 mph - N/A   Clear
3:15 AM 41.0 °F 35.2 °F 30.2 °F 65% 30.21 in 10.0 mi North 9.2 mph - N/A   Clear
3:35 AM 39.2 °F 32.5 °F 30.2 °F 70% 30.22 in 10.0 mi North 10.4 mph - N/A   Clear
3:55 AM 39.2 °F 33.6 °F 30.2 °F 70% 30.22 in 10.0 mi North 8.1 mph - N/A   Clear
4:15 AM 39.2 °F 33.0 °F 30.2 °F 70% 30.23 in 10.0 mi North 9.2 mph - N/A   Clear
4:35 AM 39.2 °F 33.0 °F 30.2 °F 70% 30.23 in 10.0 mi North 9.2 mph - N/A   Clear
4:55 AM 37.4 °F 30.8 °F 30.2 °F 75% 30.23 in 10.0 mi North 9.2 mph - N/A   Clear
5:15 AM 37.4 °F 30.3 °F 30.2 °F 75% 30.24 in 10.0 mi North 10.4 mph - N/A   Clear
5:35 AM 39.2 °F 33.0 °F 30.2 °F 70% 30.24 in 10.0 mi North 9.2 mph - N/A   Clear
5:55 AM 39.2 °F 33.6 °F 28.4 °F 65% 30.25 in 10.0 mi North 8.1 mph - N/A   Clear
6:15 AM 39.2 °F 34.2 °F 30.2 °F 70% 30.25 in 10.0 mi NNE 6.9 mph - N/A   Clear
6:35 AM 37.4 °F 32.1 °F 28.4 °F 70% 30.27 in 10.0 mi West 6.9 mph - N/A   Clear
6:55 AM 37.4 °F 31.4 °F 28.4 °F 70% 30.27 in 10.0 mi West 8.1 mph - N/A   Clear
7:15 AM 37.4 °F 32.8 °F 28.4 °F 70% 30.28 in 10.0 mi West 5.8 mph - N/A   Clear
7:35 AM 37.4 °F 32.8 °F 28.4 °F 70% 30.29 in 10.0 mi WNW 5.8 mph - N/A   Clear
7:55 AM 35.6 °F 32.8 °F 28.4 °F 75% 30.31 in 10.0 mi West 3.5 mph - N/A   Clear
8:15 AM 37.4 °F 34.9 °F 28.4 °F 70% 30.31 in 10.0 mi West 3.5 mph - N/A   Clear
8:35 AM 35.6 °F 30.7 °F 28.4 °F 75% 30.32 in 10.0 mi WNW 5.8 mph - N/A   Clear
8:55 AM 37.4 °F 33.8 °F 28.4 °F 70% 30.33 in 10.0 mi West 4.6 mph - N/A   Clear
9:15 AM 37.4 °F 34.9 °F 30.2 °F 75% 30.33 in 10.0 mi WNW 3.5 mph - N/A   Clear
9:35 AM 39.2 °F 37.0 °F 30.2 °F 70% 30.34 in 10.0 mi WNW 3.5 mph - N/A   Clear
9:55 AM 42.8 °F 40.1 °F 32.0 °F 66% 30.35 in 10.0 mi West 4.6 mph - N/A   Clear
10:15 AM 44.6 °F 41.4 °F 30.2 °F 57% 30.36 in 10.0 mi WNW 5.8 mph - N/A   Clear
10:35 AM 46.4 °F 43.5 °F 30.2 °F 53% 30.36 in 10.0 mi WNW 5.8 mph - N/A   Clear
10:55 AM 48.2 °F - 30.2 °F 50% 30.36 in 10.0 mi NNW 4.6 mph - N/A   Clear
11:15 AM 51.8 °F - 30.2 °F 44% 30.36 in 10.0 mi WNW 4.6 mph - N/A   Clear
12:35 PM 57.2 °F - 23.0 °F 27% 30.35 in 10.0 mi North 6.9 mph - N/A   Clear
12:55 PM 59.0 °F - 23.0 °F 25% 30.34 in 10.0 mi NNW 5.8 mph - N/A   Clear
1:15 PM 59.0 °F - 23.0 °F 25% 30.34 in 10.0 mi NE 8.1 mph - N/A   Clear
1:35 PM 60.8 °F - 21.2 °F 22% 30.32 in 10.0 mi North 6.9 mph - N/A   Clear
1:55 PM 60.8 °F - 21.2 °F 22% 30.31 in 10.0 mi North 5.8 mph - N/A   Clear
2:15 PM 60.8 °F - 21.2 °F 22% 30.29 in 10.0 mi NNE 4.6 mph - N/A   Clear
2:35 PM 60.8 °F - 21.2 °F 22% 30.27 in 10.0 mi NNE 5.8 mph - N/A   Clear
2:55 PM 62.6 °F - 21.2 °F 20% 30.26 in 10.0 mi NE 5.8 mph - N/A   Clear
3:15 PM 60.8 °F - 21.2 °F 22% 30.25 in 10.0 mi NNE 4.6 mph - N/A   Clear
3:35 PM 62.6 °F - 21.2 °F 20% 30.24 in 7.0 mi ENE 3.5 mph - N/A   Clear
3:55 PM 62.6 °F - 21.2 °F 20% 30.24 in 10.0 mi NE 3.5 mph - N/A   Clear
4:15 PM 62.6 °F - 21.2 °F 20% 30.24 in 10.0 mi SSE 3.5 mph - N/A   Clear
4:35 PM 62.6 °F - 21.2 °F 20% 30.23 in 10.0 mi South 4.6 mph - N/A   Clear
4:55 PM 62.6 °F - 21.2 °F 20% 30.22 in 10.0 mi Calm Calm - N/A   Clear
5:15 PM 62.6 °F - 21.2 °F 20% 30.22 in 10.0 mi Calm Calm - N/A   Clear
5:35 PM 62.6 °F - 23.0 °F 22% 30.21 in 10.0 mi SE 5.8 mph - N/A   Clear
5:55 PM 60.8 °F - 23.0 °F 23% 30.20 in 10.0 mi SSE 6.9 mph - N/A   Clear
6:15 PM 60.8 °F - 24.8 °F 25% 30.21 in 10.0 mi SSE 6.9 mph - N/A   Clear
6:35 PM 59.0 °F - 26.6 °F 29% 30.21 in 10.0 mi SSE 6.9 mph - N/A   Clear
6:55 PM 55.4 °F - 28.4 °F 36% 30.20 in 10.0 mi SE 5.8 mph - N/A   Clear
7:15 PM 53.6 °F - 28.4 °F 38% 30.20 in 10.0 mi SSE 6.9 mph - N/A   Clear
7:35 PM 53.6 °F - 28.4 °F 38% 30.20 in 10.0 mi SSE 5.8 mph - N/A   Clear
7:55 PM 53.6 °F - 28.4 °F 38% 30.20 in 10.0 mi SSE 5.8 mph - N/A   Clear
8:15 PM 51.8 °F - 28.4 °F 41% 30.20 in 10.0 mi SSE 6.9 mph - N/A   Clear
8:35 PM 50.0 °F - 30.2 °F 47% 30.19 in 10.0 mi ESE 6.9 mph - N/A   Clear
8:55 PM 48.2 °F - 30.2 °F 50% 30.18 in 10.0 mi ESE 9.2 mph - N/A   Clear
9:15 PM 50.0 °F - 30.2 °F 47% 30.18 in 10.0 mi SE 10.4 mph - N/A   Clear
9:35 PM 50.0 °F - 30.2 °F 47% 30.18 in 10.0 mi SE 9.2 mph - N/A   Clear
9:55 PM 48.2 °F - 30.2 °F 50% 30.18 in 10.0 mi SE 9.2 mph - N/A   Clear
10:15 PM 48.2 °F - 30.2 °F 50% 30.17 in 10.0 mi SE 10.4 mph - N/A   Clear
10:35 PM 46.4 °F 41.9 °F 30.2 °F 53% 30.18 in 10.0 mi SE 9.2 mph - N/A   Clear
10:55 PM 46.4 °F 42.4 °F 30.2 °F 53% 30.18 in 10.0 mi SSE 8.1 mph - N/A   Clear
11:15 PM 46.4 °F 42.4 °F 32.0 °F 57% 30.18 in 10.0 mi SSE 8.1 mph - N/A   Clear
11:35 PM 44.6 °F 40.7 °F 32.0 °F 61% 30.18 in 10.0 mi SSE 6.9 mph - N/A   Clear
11:55 PM 44.6 °F 40.2 °F 32.0 °F 61% 30.17 in 10.0 mi SSE 8.1 mph - N/A   Clear